Wetterdaten: Samstag, 29.08.2015
Datum Zeit Auen-Temp. Temp gefhlt Luftfeuchte Luftdruck Regen Wind Richtung Richtung Taupunkt Windben
29.08.2015 00:00 17,2 C 16,9 C 73 % 1017,2 hPa 0,0 mm 4,7 km/h (1 Bft) S-SW 202 12,3 C 5,4 km/h (1 Bft)
29.08.2015 00:05 17,2 C 17,1 C 71 % 1017,2 hPa 0,0 mm 5,2 km/h (1 Bft) S-SO 157 11,9 C 4,7 km/h (1 Bft)
29.08.2015 00:10 17,2 C 17,4 C 71 % 1017,2 hPa 0,0 mm 3,6 km/h (1 Bft) S-SO 157 11,9 C 7,5 km/h (2 Bft)
29.08.2015 00:15 17,1 C 17,4 C 72 % 1017,2 hPa 0,0 mm 3,1 km/h (1 Bft) O-NO 67 12,0 C 3,9 km/h (1 Bft)
29.08.2015 00:20 16,7 C 17,2 C 73 % 1017,2 hPa 0,0 mm 3,4 km/h (1 Bft) S-SO 157 11,8 C 3,6 km/h (1 Bft)
29.08.2015 00:21 16,8 C 17,2 C 73 % 1017,2 hPa 0,0 mm 3,6 km/h (1 Bft) S 180 11,9 C 4,7 km/h (1 Bft)
29.08.2015 00:24 16,8 C 17,2 C 73 % 1017,2 hPa 0,0 mm 3,6 km/h (1 Bft) S 180 11,9 C 4,7 km/h (1 Bft)
29.08.2015 00:25 16,8 C 17,2 C 73 % 1017,2 hPa 0,0 mm 3,6 km/h (1 Bft) S 180 11,9 C 4,7 km/h (1 Bft)
29.08.2015 00:30 16,6 C 16,8 C 73 % 1017,2 hPa 0,0 mm 2,3 km/h (1 Bft) S 180 11,7 C 4,7 km/h (1 Bft)
29.08.2015 00:35 16,5 C 16,8 C 73 % 1017,4 hPa 0,0 mm 2,1 km/h (1 Bft) S-SO 157 11,6 C 0,0 km/h (0 Bft)
29.08.2015 00:40 15,9 C 16,3 C 73 % 1017,4 hPa 0,0 mm 1,6 km/h (1 Bft) SW 225 11,1 C 0,0 km/h (0 Bft)
29.08.2015 00:45 15,5 C 15,8 C 74 % 1017,4 hPa 0,0 mm 0,0 km/h (0 Bft) O-NO 67 10,9 C 0,0 km/h (0 Bft)
29.08.2015 00:50 15,8 C 15,9 C 75 % 1017,4 hPa 0,0 mm 0,0 km/h (0 Bft) O-SO 112 11,4 C 0,0 km/h (0 Bft)
29.08.2015 00:55 15,7 C 15,6 C 76 % 1017,5 hPa 0,0 mm 0,0 km/h (0 Bft) O-SO 112 11,5 C 0,0 km/h (0 Bft)
29.08.2015 01:00 15,3 C 15,2 C 76 % 1017,5 hPa 0,0 mm 0,0 km/h (0 Bft) N-NO 22 11,1 C 0,0 km/h (0 Bft)
29.08.2015 01:05 15,3 C 15,1 C 77 % 1017,5 hPa 0,0 mm 0,0 km/h (0 Bft) N-NO 22 11,3 C 0,0 km/h (0 Bft)
29.08.2015 01:10 15,1 C 14,9 C 77 % 1017,5 hPa 0,0 mm 0,0 km/h (0 Bft) O-NO 67 11,1 C 0,0 km/h (0 Bft)
29.08.2015 01:15 15,0 C 14,8 C 77 % 1017,6 hPa 0,0 mm 0,0 km/h (0 Bft) S 180 11,0 C 0,0 km/h (0 Bft)
29.08.2015 01:20 15,1 C 14,9 C 78 % 1017,6 hPa 0,0 mm 0,0 km/h (0 Bft) SO 135 11,3 C 0,0 km/h (0 Bft)
29.08.2015 01:25 14,9 C 14,7 C 78 % 1017,6 hPa 0,0 mm 0,0 km/h (0 Bft) S-SW 202 11,1 C 0,0 km/h (0 Bft)
29.08.2015 01:30 14,6 C 14,5 C 78 % 1017,6 hPa 0,0 mm 0,0 km/h (0 Bft) SO 135 10,8 C 0,0 km/h (0 Bft)
29.08.2015 01:35 14,3 C 14,2 C 78 % 1017,6 hPa 0,0 mm 0,0 km/h (0 Bft) SO 135 10,5 C 0,0 km/h (0 Bft)
29.08.2015 01:40 14,2 C 14,1 C 78 % 1017,6 hPa 0,0 mm 0,0 km/h (0 Bft) S-SO 157 10,4 C 3,4 km/h (1 Bft)
29.08.2015 01:45 14,2 C 14,1 C 79 % 1017,6 hPa 0,0 mm 0,3 km/h (0 Bft) O-SO 112 10,6 C 0,0 km/h (0 Bft)
29.08.2015 01:50 13,9 C 13,9 C 79 % 1017,6 hPa 0,0 mm 0,3 km/h (0 Bft) O-SO 112 10,3 C 0,0 km/h (0 Bft)
29.08.2015 01:55 14,2 C 14,3 C 78 % 1017,5 hPa 0,0 mm 0,3 km/h (0 Bft) S-SO 157 10,4 C 2,6 km/h (1 Bft)
29.08.2015 02:00 15,0 C 15,0 C 79 % 1017,5 hPa 0,0 mm 1,8 km/h (1 Bft) S-SO 157 11,4 C 0,0 km/h (0 Bft)
29.08.2015 02:05 14,6 C 14,6 C 81 % 1017,5 hPa 0,0 mm 1,6 km/h (1 Bft) O-NO 67 11,4 C 0,0 km/h (0 Bft)
29.08.2015 02:10 14,2 C 14,2 C 81 % 1017,5 hPa 0,0 mm 0,0 km/h (0 Bft) O-SO 112 11,0 C 0,0 km/h (0 Bft)
29.08.2015 02:15 14,3 C 14,2 C 81 % 1017,5 hPa 0,0 mm 0,0 km/h (0 Bft) O-SO 112 11,1 C 0,0 km/h (0 Bft)
29.08.2015 02:20 13,9 C 13,8 C 81 % 1017,5 hPa 0,0 mm 0,0 km/h (0 Bft) S-SO 157 10,7 C 0,0 km/h (0 Bft)
29.08.2015 02:25 14,4 C 14,4 C 80 % 1017,5 hPa 0,0 mm 0,8 km/h (0 Bft) S-SO 157 11,0 C 3,6 km/h (1 Bft)
29.08.2015 02:30 14,5 C 14,5 C 80 % 1017,5 hPa 0,0 mm 1,3 km/h (1 Bft) O-SO 112 11,1 C 0,0 km/h (0 Bft)
29.08.2015 02:35 14,1 C 14,1 C 81 % 1017,5 hPa 0,0 mm 0,8 km/h (0 Bft) O-SO 112 10,9 C 0,0 km/h (0 Bft)
29.08.2015 02:40 13,9 C 13,9 C 82 % 1017,5 hPa 0,0 mm 0,3 km/h (0 Bft) O-SO 112 10,9 C 0,0 km/h (0 Bft)
29.08.2015 02:45 13,7 C 13,7 C 81 % 1017,5 hPa 0,0 mm 0,3 km/h (0 Bft) O-SO 112 10,5 C 0,0 km/h (0 Bft)
29.08.2015 02:50 13,7 C 13,6 C 82 % 1017,5 hPa 0,0 mm 0,0 km/h (0 Bft) SO 135 10,7 C 0,0 km/h (0 Bft)
29.08.2015 02:55 13,6 C 13,5 C 82 % 1017,2 hPa 0,0 mm 0,0 km/h (0 Bft) S 180 10,6 C 0,0 km/h (0 Bft)
29.08.2015 03:00 13,6 C 13,4 C 82 % 1017,2 hPa 0,0 mm 0,0 km/h (0 Bft) S-SO 157 10,6 C 0,0 km/h (0 Bft)
29.08.2015 03:05 13,4 C 13,3 C 82 % 1017,2 hPa 0,0 mm 0,0 km/h (0 Bft) S-SO 157 10,4 C 0,0 km/h (0 Bft)
29.08.2015 03:10 13,4 C 13,2 C 83 % 1017,2 hPa 0,0 mm 0,0 km/h (0 Bft) SO 135 10,6 C 0,0 km/h (0 Bft)
29.08.2015 03:15 13,3 C 13,1 C 83 % 1017,2 hPa 0,0 mm 0,0 km/h (0 Bft) SO 135 10,5 C 0,0 km/h (0 Bft)
29.08.2015 03:20 13,1 C 12,9 C 83 % 1017,2 hPa 0,0 mm 0,0 km/h (0 Bft) S 180 10,3 C 0,0 km/h (0 Bft)
29.08.2015 03:25 13,2 C 13,0 C 83 % 1017,2 hPa 0,0 mm 0,0 km/h (0 Bft) S-SO 157 10,4 C 0,0 km/h (0 Bft)
29.08.2015 03:30 13,1 C 12,9 C 83 % 1017,2 hPa 0,0 mm 0,0 km/h (0 Bft) S 180 10,3 C 0,0 km/h (0 Bft)
29.08.2015 03:35 13,1 C 12,9 C 83 % 1017,4 hPa 0,0 mm 0,0 km/h (0 Bft) SO 135 10,3 C 0,0 km/h (0 Bft)
29.08.2015 03:40 13,0 C 12,8 C 84 % 1017,4 hPa 0,0 mm 0,0 km/h (0 Bft) O-SO 112 10,4 C 0,0 km/h (0 Bft)
29.08.2015 03:45 13,0 C 12,8 C 84 % 1017,4 hPa 0,0 mm 0,0 km/h (0 Bft) O-SO 112 10,4 C 0,0 km/h (0 Bft)
29.08.2015 03:50 12,8 C 12,7 C 85 % 1017,4 hPa 0,0 mm 0,0 km/h (0 Bft) O-SO 112 10,3 C 0,0 km/h (0 Bft)
29.08.2015 03:55 12,8 C 12,7 C 85 % 1017,4 hPa 0,0 mm 0,0 km/h (0 Bft) SO 135 10,3 C 0,0 km/h (0 Bft)
29.08.2015 04:00 12,6 C 12,5 C 85 % 1017,4 hPa 0,0 mm 0,0 km/h (0 Bft) SO 135 10,1 C 0,0 km/h (0 Bft)
29.08.2015 04:05 12,6 C 12,5 C 85 % 1017,4 hPa 0,0 mm 0,0 km/h (0 Bft) O-SO 112 10,1 C 0,0 km/h (0 Bft)
29.08.2015 04:10 12,6 C 12,4 C 85 % 1017,4 hPa 0,0 mm 0,0 km/h (0 Bft) O-SO 112 10,1 C 0,0 km/h (0 Bft)
29.08.2015 04:15 12,4 C 12,3 C 85 % 1017,3 hPa 0,0 mm 0,0 km/h (0 Bft) O-SO 112 9,9 C 0,0 km/h (0 Bft)
29.08.2015 04:20 12,4 C 12,3 C 85 % 1017,3 hPa 0,0 mm 0,0 km/h (0 Bft) O-SO 112 9,9 C 0,0 km/h (0 Bft)
29.08.2015 04:25 12,4 C 12,3 C 85 % 1017,3 hPa 0,0 mm 0,0 km/h (0 Bft) O-SO 112 9,9 C 0,0 km/h (0 Bft)
29.08.2015 04:30 12,4 C 12,2 C 86 % 1017,3 hPa 0,0 mm 0,0 km/h (0 Bft) O-SO 112 10,1 C 0,0 km/h (0 Bft)
29.08.2015 04:35 12,4 C 12,3 C 86 % 1017,4 hPa 0,0 mm 0,0 km/h (0 Bft) O-SO 112 10,1 C 0,0 km/h (0 Bft)
29.08.2015 04:40 12,2 C 12,1 C 86 % 1017,4 hPa 0,0 mm 0,0 km/h (0 Bft) O-SO 112 9,9 C 0,0 km/h (0 Bft)
29.08.2015 04:45 12,2 C 12,1 C 86 % 1017,4 hPa 0,0 mm 0,0 km/h (0 Bft) S 180 9,9 C 0,0 km/h (0 Bft)
29.08.2015 04:50 12,4 C 12,3 C 86 % 1017,4 hPa 0,0 mm 0,0 km/h (0 Bft) S-SO 157 10,1 C 0,0 km/h (0 Bft)
29.08.2015 04:55 12,4 C 12,3 C 86 % 1017,4 hPa 0,0 mm 0,0 km/h (0 Bft) S-SO 157 10,1 C 0,0 km/h (0 Bft)
29.08.2015 05:00 12,2 C 12,1 C 86 % 1017,4 hPa 0,0 mm 0,0 km/h (0 Bft) SO 135 9,9 C 0,0 km/h (0 Bft)
29.08.2015 05:05 12,1 C 12,1 C 86 % 1017,4 hPa 0,0 mm 0,0 km/h (0 Bft) S 180 9,8 C 0,0 km/h (0 Bft)
29.08.2015 05:10 12,0 C 11,9 C 86 % 1017,4 hPa 0,0 mm 0,0 km/h (0 Bft) SO 135 9,7 C 0,0 km/h (0 Bft)
29.08.2015 05:15 11,8 C 11,8 C 86 % 1017,3 hPa 0,0 mm 0,0 km/h (0 Bft) S-SW 202 9,5 C 0,0 km/h (0 Bft)
29.08.2015 05:20 11,9 C 11,8 C 86 % 1017,3 hPa 0,0 mm 0,0 km/h (0 Bft) S-SW 202 9,6 C 0,0 km/h (0 Bft)
29.08.2015 05:25 11,9 C 11,8 C 86 % 1017,3 hPa 0,0 mm 0,0 km/h (0 Bft) S-SW 202 9,6 C 0,0 km/h (0 Bft)
29.08.2015 05:30 11,8 C 11,7 C 87 % 1017,3 hPa 0,0 mm 0,0 km/h (0 Bft) S 180 9,7 C 0,0 km/h (0 Bft)
29.08.2015 05:35 11,8 C 11,7 C 87 % 1017,4 hPa 0,0 mm 0,0 km/h (0 Bft) S 180 9,7 C 0,0 km/h (0 Bft)
29.08.2015 05:40 11,8 C 11,7 C 87 % 1017,4 hPa 0,0 mm 0,0 km/h (0 Bft) S 180 9,7 C 0,0 km/h (0 Bft)
29.08.2015 05:45 12,0 C 11,9 C 87 % 1017,4 hPa 0,0 mm 0,0 km/h (0 Bft) O-SO 112 9,9 C 0,0 km/h (0 Bft)
29.08.2015 05:50 12,1 C 12,0 C 87 % 1017,4 hPa 0,0 mm 0,0 km/h (0 Bft) SO 135 10,0 C 0,0 km/h (0 Bft)
29.08.2015 05:55 11,9 C 11,9 C 87 % 1017,4 hPa 0,0 mm 0,0 km/h (0 Bft) SO 135 9,8 C 0,0 km/h (0 Bft)
29.08.2015 06:00 11,7 C 11,7 C 87 % 1017,4 hPa 0,0 mm 0,0 km/h (0 Bft) SO 135 9,6 C 0,0 km/h (0 Bft)
29.08.2015 06:05 12,0 C 11,9 C 87 % 1017,4 hPa 0,0 mm 0,3 km/h (0 Bft) S-SO 157 9,9 C 2,6 km/h (1 Bft)
29.08.2015 06:10 12,1 C 12,2 C 85 % 1017,4 hPa 0,0 mm 1,6 km/h (1 Bft) SO 135 9,7 C 4,1 km/h (1 Bft)
29.08.2015 06:15 12,3 C 12,6 C 85 % 1017,6 hPa 0,0 mm 1,8 km/h (1 Bft) S-SO 157 9,9 C 3,1 km/h (1 Bft)
29.08.2015 06:20 12,2 C 12,5 C 85 % 1017,6 hPa 0,0 mm 1,6 km/h (1 Bft) SO 135 9,8 C 2,6 km/h (1 Bft)
29.08.2015 06:21 12,6 C 12,8 C 86 % 1017,6 hPa 0,0 mm 1,3 km/h (1 Bft) S-SO 157 10,3 C 2,6 km/h (1 Bft)
29.08.2015 06:25 12,6 C 12,8 C 86 % 1017,6 hPa 0,0 mm 1,3 km/h (1 Bft) S-SO 157 10,3 C 2,6 km/h (1 Bft)
29.08.2015 06:30 12,7 C 12,6 C 89 % 1017,6 hPa 0,0 mm 0,8 km/h (0 Bft) S-SO 157 10,9 C 0,0 km/h (0 Bft)
29.08.2015 06:35 12,7 C 12,7 C 86 % 1017,2 hPa 0,0 mm 0,3 km/h (0 Bft) SO 135 10,4 C 0,0 km/h (0 Bft)
29.08.2015 06:40 12,2 C 12,2 C 89 % 1017,2 hPa 0,0 mm 0,0 km/h (0 Bft) SO 135 10,4 C 0,0 km/h (0 Bft)
29.08.2015 06:45 12,1 C 12,2 C 88 % 1017,2 hPa 0,0 mm 0,0 km/h (0 Bft) S-SO 157 10,2 C 0,0 km/h (0 Bft)
29.08.2015 06:50 11,9 C 12,0 C 88 % 1017,2 hPa 0,0 mm 0,0 km/h (0 Bft) S 180 10,0 C 0,0 km/h (0 Bft)
29.08.2015 06:55 12,0 C 12,0 C 88 % 1017,4 hPa 0,0 mm 0,0 km/h (0 Bft) S 180 10,1 C 0,0 km/h (0 Bft)
29.08.2015 07:00 12,0 C 11,9 C 88 % 1017,4 hPa 0,0 mm 0,0 km/h (0 Bft) SW 225 10,1 C 0,0 km/h (0 Bft)
29.08.2015 07:05 12,0 C 11,9 C 88 % 1017,4 hPa 0,0 mm 0,0 km/h (0 Bft) S-SW 202 10,1 C 0,0 km/h (0 Bft)
29.08.2015 07:10 12,0 C 12,0 C 88 % 1017,4 hPa 0,0 mm 0,0 km/h (0 Bft) SW 225 10,1 C 0,0 km/h (0 Bft)
29.08.2015 07:15 11,9 C 12,0 C 88 % 1017,5 hPa 0,0 mm 0,0 km/h (0 Bft) SW 225 10,0 C 0,0 km/h (0 Bft)
29.08.2015 07:20 12,2 C 12,2 C 88 % 1017,5 hPa 0,0 mm 0,0 km/h (0 Bft) SW 225 10,3 C 0,0 km/h (0 Bft)
29.08.2015 07:25 12,2 C 12,2 C 88 % 1017,5 hPa 0,0 mm 0,0 km/h (0 Bft) SW 225 10,3 C 0,0 km/h (0 Bft)
29.08.2015 07:30 12,2 C 12,2 C 88 % 1017,5 hPa 0,0 mm 0,0 km/h (0 Bft) SW 225 10,3 C 0,0 km/h (0 Bft)
29.08.2015 07:35 12,2 C 12,3 C 85 % 1017,7 hPa 0,0 mm 0,0 km/h (0 Bft) S-SW 202 9,8 C 0,0 km/h (0 Bft)
29.08.2015 07:40 12,3 C 12,5 C 86 % 1017,7 hPa 0,0 mm 0,0 km/h (0 Bft) S-SW 202 10,0 C 0,0 km/h (0 Bft)
29.08.2015 07:45 12,4 C 13,8 C 86 % 1017,7 hPa 0,0 mm 0,0 km/h (0 Bft) S-SO 157 10,1 C 0,0 km/h (0 Bft)
29.08.2015 07:50 12,7 C 16,9 C 86 % 1017,7 hPa 0,0 mm 0,0 km/h (0 Bft) S 180 10,4 C 0,0 km/h (0 Bft)
29.08.2015 07:55 13,4 C 18,9 C 85 % 1017,7 hPa 0,0 mm 0,0 km/h (0 Bft) SW 225 10,9 C 0,0 km/h (0 Bft)
29.08.2015 08:00 14,3 C 21,2 C 85 % 1017,7 hPa 0,0 mm 0,0 km/h (0 Bft) SO 135 11,8 C 0,0 km/h (0 Bft)
29.08.2015 08:05 15,1 C 22,2 C 88 % 1017,7 hPa 0,0 mm 0,0 km/h (0 Bft) SO 135 13,1 C 0,0 km/h (0 Bft)
29.08.2015 08:10 15,8 C 23,5 C 87 % 1017,7 hPa 0,0 mm 0,0 km/h (0 Bft) SO 135 13,6 C 0,0 km/h (0 Bft)
29.08.2015 08:15 16,3 C 24,5 C 86 % 1017,6 hPa 0,0 mm 0,0 km/h (0 Bft) SO 135 14,0 C 0,0 km/h (0 Bft)
29.08.2015 08:20 17,0 C 25,9 C 85 % 1017,6 hPa 0,0 mm 0,0 km/h (0 Bft) SO 135 14,5 C 0,0 km/h (0 Bft)
29.08.2015 08:25 17,3 C 26,8 C 80 % 1017,6 hPa 0,0 mm 0,0 km/h (0 Bft) SO 135 13,8 C 0,0 km/h (0 Bft)
29.08.2015 08:30 17,8 C 27,8 C 79 % 1017,6 hPa 0,0 mm 0,0 km/h (0 Bft) SO 135 14,1 C 0,0 km/h (0 Bft)
29.08.2015 08:35 18,0 C 28,6 C 78 % 1017,7 hPa 0,0 mm 0,0 km/h (0 Bft) SO 135 14,1 C 0,0 km/h (0 Bft)
29.08.2015 08:40 18,2 C 29,2 C 78 % 1017,7 hPa 0,0 mm 0,0 km/h (0 Bft) SO 135 14,3 C 0,0 km/h (0 Bft)
29.08.2015 08:45 18,7 C 29,6 C 78 % 1017,7 hPa 0,0 mm 0,0 km/h (0 Bft) SO 135 14,8 C 0,0 km/h (0 Bft)
29.08.2015 08:50 19,2 C 30,0 C 76 % 1017,7 hPa 0,0 mm 0,0 km/h (0 Bft) SO 135 14,9 C 0,0 km/h (0 Bft)
29.08.2015 08:55 19,4 C 30,7 C 75 % 1018,6 hPa 0,0 mm 0,0 km/h (0 Bft) SO 135 14,8 C 0,0 km/h (0 Bft)
29.08.2015 09:00 19,9 C 31,1 C 73 % 1018,6 hPa 0,0 mm 0,0 km/h (0 Bft) SO 135 14,9 C 0,0 km/h (0 Bft)
29.08.2015 09:05 20,3 C 31,4 C 73 % 1018,6 hPa 0,0 mm 0,0 km/h (0 Bft) SO 135 15,3 C 0,0 km/h (0 Bft)
29.08.2015 09:10 20,7 C 32,1 C 72 % 1018,6 hPa 0,0 mm 0,0 km/h (0 Bft) SO 135 15,5 C 0,0 km/h (0 Bft)
29.08.2015 09:15 21,1 C 32,3 C 71 % 1019,0 hPa 0,0 mm 0,0 km/h (0 Bft) SO 135 15,6 C 0,0 km/h (0 Bft)
29.08.2015 09:20 21,6 C 32,7 C 70 % 1019,0 hPa 0,0 mm 0,0 km/h (0 Bft) SO 135 15,9 C 0,0 km/h (0 Bft)
29.08.2015 09:25 21,6 C 32,7 C 69 % 1019,0 hPa 0,0 mm 0,0 km/h (0 Bft) SO 135 15,7 C 0,0 km/h (0 Bft)
29.08.2015 09:30 21,7 C 32,2 C 69 % 1019,0 hPa 0,0 mm 0,0 km/h (0 Bft) SO 135 15,8 C 0,0 km/h (0 Bft)
29.08.2015 09:35 21,8 C 31,5 C 68 % 1019,4 hPa 0,0 mm 0,0 km/h (0 Bft) SO 135 15,6 C 0,0 km/h (0 Bft)
29.08.2015 09:40 22,3 C 31,2 C 68 % 1019,4 hPa 0,0 mm 0,0 km/h (0 Bft) SO 135 16,1 C 0,0 km/h (0 Bft)
29.08.2015 09:45 22,8 C 31,3 C 67 % 1019,4 hPa 0,0 mm 0,0 km/h (0 Bft) SO 135 16,3 C 0,0 km/h (0 Bft)
29.08.2015 09:50 22,6 C 30,7 C 65 % 1019,4 hPa 0,0 mm 0,8 km/h (0 Bft) SO 135 15,7 C 0,0 km/h (0 Bft)
29.08.2015 09:55 23,1 C 30,2 C 65 % 1019,8 hPa 0,0 mm 1,0 km/h (0 Bft) SO 135 16,2 C 0,0 km/h (0 Bft)
29.08.2015 10:00 23,2 C 30,2 C 65 % 1019,8 hPa 0,0 mm 0,8 km/h (0 Bft) SO 135 16,2 C 5,7 km/h (1 Bft)
29.08.2015 10:05 23,6 C 29,8 C 64 % 1019,8 hPa 0,0 mm 1,8 km/h (1 Bft) SO 135 16,4 C 7,3 km/h (2 Bft)
29.08.2015 10:10 23,6 C 28,8 C 64 % 1019,8 hPa 0,0 mm 4,4 km/h (1 Bft) SO 135 16,4 C 9,3 km/h (2 Bft)
29.08.2015 10:15 23,7 C 28,6 C 64 % 1020,0 hPa 0,0 mm 5,7 km/h (1 Bft) N-NW 337 16,5 C 6,0 km/h (2 Bft)
29.08.2015 10:20 23,6 C 28,6 C 64 % 1020,0 hPa 0,0 mm 5,7 km/h (1 Bft) O-NO 67 16,4 C 10,4 km/h (2 Bft)
29.08.2015 10:25 23,8 C 29,1 C 64 % 1020,0 hPa 0,0 mm 5,4 km/h (1 Bft) N-NW 337 16,6 C 7,0 km/h (2 Bft)
29.08.2015 10:30 23,8 C 29,7 C 64 % 1020,0 hPa 0,0 mm 3,9 km/h (1 Bft) N-NO 22 16,6 C 4,4 km/h (1 Bft)
29.08.2015 10:35 24,0 C 29,9 C 64 % 1020,8 hPa 0,0 mm 3,9 km/h (1 Bft) N-NW 337 16,8 C 7,5 km/h (2 Bft)
29.08.2015 10:40 24,1 C 29,9 C 63 % 1020,8 hPa 0,0 mm 4,9 km/h (1 Bft) N-NO 22 16,6 C 8,5 km/h (2 Bft)
29.08.2015 10:45 24,2 C 30,0 C 63 % 1020,8 hPa 0,0 mm 5,2 km/h (1 Bft) NW 315 16,7 C 6,2 km/h (2 Bft)
29.08.2015 10:50 24,5 C 30,4 C 62 % 1020,8 hPa 0,0 mm 4,1 km/h (1 Bft) NW 315 16,7 C 3,6 km/h (1 Bft)
29.08.2015 10:55 24,7 C 30,8 C 62 % 1020,6 hPa 0,0 mm 3,4 km/h (1 Bft) NO 45 16,9 C 7,5 km/h (2 Bft)
29.08.2015 11:00 24,8 C 30,9 C 63 % 1020,6 hPa 0,0 mm 2,6 km/h (1 Bft) O-NO 67 17,3 C 2,6 km/h (1 Bft)
29.08.2015 11:05 24,9 C 31,0 C 61 % 1020,6 hPa 0,0 mm 2,3 km/h (1 Bft) O 90 16,8 C 4,9 km/h (1 Bft)
29.08.2015 11:10 24,8 C 31,4 C 62 % 1020,6 hPa 0,0 mm 2,1 km/h (1 Bft) O 90 17,0 C 3,6 km/h (1 Bft)
29.08.2015 11:15 25,1 C 31,6 C 61 % 1020,6 hPa 0,0 mm 2,3 km/h (1 Bft) N-NO 22 17,0 C 6,7 km/h (2 Bft)
29.08.2015 11:20 25,1 C 31,2 C 61 % 1020,6 hPa 0,0 mm 3,6 km/h (1 Bft) N-NO 22 17,0 C 10,4 km/h (2 Bft)
29.08.2015 11:25 25,0 C 31,1 C 61 % 1020,6 hPa 0,0 mm 4,4 km/h (1 Bft) O-SO 112 16,9 C 3,4 km/h (1 Bft)
29.08.2015 11:30 25,3 C 31,7 C 61 % 1020,6 hPa 0,0 mm 2,3 km/h (1 Bft) SW 225 17,2 C 0,0 km/h (0 Bft)
29.08.2015 11:35 25,6 C 32,0 C 61 % 1020,6 hPa 0,0 mm 1,3 km/h (1 Bft) O-NO 67 17,5 C 3,4 km/h (1 Bft)
29.08.2015 11:40 25,6 C 31,4 C 60 % 1020,6 hPa 0,0 mm 3,6 km/h (1 Bft) N-NO 22 17,2 C 12,7 km/h (3 Bft)
29.08.2015 11:45 25,9 C 31,5 C 59 % 1020,6 hPa 0,0 mm 4,9 km/h (1 Bft) N-NW 337 17,3 C 4,1 km/h (1 Bft)
29.08.2015 11:50 25,7 C 31,1 C 59 % 1020,6 hPa 0,0 mm 5,2 km/h (1 Bft) O-NO 67 17,1 C 12,9 km/h (3 Bft)
29.08.2015 11:55 25,7 C 31,2 C 59 % 1020,9 hPa 0,0 mm 5,2 km/h (1 Bft) N-NO 22 17,1 C 10,1 km/h (2 Bft)
29.08.2015 12:00 25,5 C 30,8 C 59 % 1020,9 hPa 0,0 mm 5,7 km/h (1 Bft) O-SO 112 16,9 C 14,0 km/h (3 Bft)
29.08.2015 12:05 25,7 C 30,8 C 59 % 1020,9 hPa 0,0 mm 6,0 km/h (2 Bft) N-NO 22 17,1 C 8,5 km/h (2 Bft)
29.08.2015 12:10 25,7 C 30,8 C 59 % 1020,9 hPa 0,0 mm 5,7 km/h (1 Bft) N-NO 22 17,1 C 10,1 km/h (2 Bft)
29.08.2015 12:15 26,0 C 30,8 C 58 % 1020,7 hPa 0,0 mm 6,5 km/h (2 Bft) NO 45 17,1 C 6,5 km/h (2 Bft)
29.08.2015 12:20 26,2 C 31,0 C 57 % 1020,7 hPa 0,0 mm 6,2 km/h (2 Bft) NO 45 17,0 C 16,1 km/h (3 Bft)
29.08.2015 12:21 25,9 C 30,9 C 58 % 1020,7 hPa 0,0 mm 6,7 km/h (2 Bft) N-NO 22 17,0 C 7,0 km/h (2 Bft)
29.08.2015 12:26 26,1 C 30,8 C 56 % 1020,7 hPa 0,0 mm 8,3 km/h (2 Bft) N-NO 22 16,6 C 8,8 km/h (2 Bft)
29.08.2015 12:30 26,1 C 30,8 C 56 % 1020,7 hPa 0,0 mm 8,3 km/h (2 Bft) N-NO 22 16,6 C 8,8 km/h (2 Bft)
29.08.2015 12:35 26,1 C 30,8 C 57 % 1020,6 hPa 0,0 mm 8,0 km/h (2 Bft) N-NO 22 16,9 C 6,0 km/h (2 Bft)
29.08.2015 12:40 26,5 C 31,2 C 57 % 1020,6 hPa 0,0 mm 6,5 km/h (2 Bft) N 360 17,3 C 6,2 km/h (2 Bft)
29.08.2015 12:45 26,7 C 31,4 C 57 % 1020,6 hPa 0,0 mm 6,2 km/h (2 Bft) NO 45 17,5 C 12,2 km/h (2 Bft)
29.08.2015 12:50 26,8 C 31,7 C 57 % 1020,6 hPa 0,0 mm 6,5 km/h (2 Bft) O-NO 67 17,6 C 12,4 km/h (3 Bft)
29.08.2015 12:55 26,9 C 31,7 C 57 % 1020,2 hPa 0,0 mm 5,7 km/h (1 Bft) NO 45 17,6 C 7,0 km/h (2 Bft)
29.08.2015 13:00 27,1 C 31,7 C 56 % 1020,2 hPa 0,0 mm 6,0 km/h (2 Bft) N-NO 22 17,5 C 7,3 km/h (2 Bft)
29.08.2015 13:05 27,3 C 31,8 C 56 % 1020,2 hPa 0,0 mm 6,5 km/h (2 Bft) N-NO 22 17,7 C 11,4 km/h (2 Bft)
29.08.2015 13:10 27,3 C 31,4 C 55 % 1020,2 hPa 0,0 mm 7,0 km/h (2 Bft) N-NO 22 17,4 C 10,6 km/h (2 Bft)
29.08.2015 13:15 27,5 C 31,2 C 55 % 1020,2 hPa 0,0 mm 6,7 km/h (2 Bft) N 360 17,6 C 12,4 km/h (3 Bft)
29.08.2015 13:20 27,4 C 30,2 C 55 % 1020,2 hPa 0,0 mm 7,0 km/h (2 Bft) N-NO 22 17,5 C 7,3 km/h (2 Bft)
29.08.2015 13:25 27,4 C 29,7 C 55 % 1020,2 hPa 0,0 mm 7,8 km/h (2 Bft) N-NO 22 17,5 C 4,9 km/h (1 Bft)
29.08.2015 13:30 27,6 C 29,5 C 55 % 1020,2 hPa 0,0 mm 7,0 km/h (2 Bft) O-SO 112 17,7 C 9,8 km/h (2 Bft)
29.08.2015 13:35 27,4 C 29,7 C 54 % 1019,9 hPa 0,0 mm 6,2 km/h (2 Bft) NO 45 17,3 C 9,3 km/h (2 Bft)
29.08.2015 13:40 27,5 C 30,4 C 54 % 1019,9 hPa 0,0 mm 7,0 km/h (2 Bft) N-NO 22 17,3 C 11,4 km/h (2 Bft)
29.08.2015 13:45 27,6 C 31,0 C 54 % 1019,9 hPa 0,0 mm 8,0 km/h (2 Bft) NO 45 17,4 C 8,5 km/h (2 Bft)
29.08.2015 13:50 27,8 C 31,7 C 54 % 1019,9 hPa 0,0 mm 7,5 km/h (2 Bft) NO 45 17,6 C 7,8 km/h (2 Bft)
29.08.2015 13:55 27,9 C 31,8 C 52 % 1019,7 hPa 0,0 mm 7,8 km/h (2 Bft) NW 315 17,1 C 8,5 km/h (2 Bft)
29.08.2015 14:00 28,1 C 32,2 C 52 % 1019,7 hPa 0,0 mm 7,8 km/h (2 Bft) NO 45 17,3 C 10,6 km/h (2 Bft)
29.08.2015 14:05 27,9 C 32,0 C 52 % 1019,7 hPa 0,0 mm 7,5 km/h (2 Bft) O-NO 67 17,1 C 4,7 km/h (1 Bft)
29.08.2015 14:10 28,1 C 32,3 C 53 % 1019,7 hPa 0,0 mm 6,7 km/h (2 Bft) O-NO 67 17,6 C 4,4 km/h (1 Bft)
29.08.2015 14:15 28,5 C 32,8 C 53 % 1019,3 hPa 0,0 mm 5,7 km/h (1 Bft) N-NO 22 18,0 C 6,2 km/h (2 Bft)
29.08.2015 14:20 28,7 C 33,1 C 53 % 1019,3 hPa 0,0 mm 5,7 km/h (1 Bft) O-NO 67 18,2 C 13,7 km/h (3 Bft)
29.08.2015 14:25 28,6 C 32,9 C 52 % 1019,3 hPa 0,0 mm 7,0 km/h (2 Bft) NO 45 17,8 C 13,7 km/h (3 Bft)
29.08.2015 14:30 28,6 C 32,8 C 53 % 1019,3 hPa 0,0 mm 7,3 km/h (2 Bft) O-SO 112 18,1 C 10,6 km/h (2 Bft)
29.08.2015 14:35 28,7 C 32,8 C 51 % 1019,1 hPa 0,0 mm 7,0 km/h (2 Bft) NO 45 17,5 C 11,1 km/h (2 Bft)
29.08.2015 14:40 28,7 C 32,8 C 52 % 1019,1 hPa 0,0 mm 6,5 km/h (2 Bft) O-SO 112 17,8 C 17,3 km/h (3 Bft)
29.08.2015 14:45 28,8 C 33,4 C 52 % 1019,1 hPa 0,0 mm 5,4 km/h (1 Bft) SO 135 17,9 C 6,0 km/h (2 Bft)
29.08.2015 14:50 29,0 C 33,6 C 52 % 1019,1 hPa 0,0 mm 4,7 km/h (1 Bft) NO 45 18,1 C 6,2 km/h (2 Bft)
29.08.2015 14:55 29,1 C 33,8 C 51 % 1018,8 hPa 0,0 mm 4,9 km/h (1 Bft) SW 225 17,9 C 4,7 km/h (1 Bft)
29.08.2015 15:00 29,1 C 34,0 C 52 % 1018,8 hPa 0,0 mm 4,1 km/h (1 Bft) O-SO 112 18,2 C 0,0 km/h (0 Bft)
29.08.2015 15:05 29,1 C 34,1 C 52 % 1018,8 hPa 0,0 mm 3,9 km/h (1 Bft) NO 45 18,2 C 11,4 km/h (2 Bft)
29.08.2015 15:10 29,0 C 33,8 C 52 % 1018,8 hPa 0,0 mm 4,7 km/h (1 Bft) O-NO 67 18,1 C 6,5 km/h (2 Bft)
29.08.2015 15:15 29,0 C 33,7 C 51 % 1018,4 hPa 0,0 mm 6,5 km/h (2 Bft) O 90 17,8 C 8,3 km/h (2 Bft)
29.08.2015 15:20 29,1 C 33,7 C 50 % 1018,4 hPa 0,0 mm 6,7 km/h (2 Bft) N-NO 22 17,6 C 11,9 km/h (2 Bft)
29.08.2015 15:25 29,0 C 33,4 C 50 % 1018,4 hPa 0,0 mm 8,3 km/h (2 Bft) N-NO 22 17,5 C 15,0 km/h (3 Bft)
29.08.2015 15:30 29,1 C 33,1 C 51 % 1018,4 hPa 0,0 mm 8,5 km/h (2 Bft) O-NO 67 17,9 C 27,2 km/h (4 Bft)
29.08.2015 15:35 29,4 C 33,6 C 50 % 1017,9 hPa 0,0 mm 5,7 km/h (1 Bft) NO 45 17,9 C 9,6 km/h (2 Bft)
29.08.2015 15:40 29,4 C 34,0 C 50 % 1017,9 hPa 0,0 mm 3,4 km/h (1 Bft) O 90 17,9 C 3,1 km/h (1 Bft)
29.08.2015 15:45 29,4 C 34,1 C 49 % 1017,9 hPa 0,0 mm 3,9 km/h (1 Bft) N-NO 22 17,5 C 7,3 km/h (2 Bft)
29.08.2015 15:50 29,3 C 34,0 C 49 % 1017,9 hPa 0,0 mm 4,1 km/h (1 Bft) SO 135 17,5 C 3,4 km/h (1 Bft)
29.08.2015 15:55 29,1 C 34,0 C 48 % 1017,7 hPa 0,0 mm 4,1 km/h (1 Bft) N-NO 22 16,9 C 4,1 km/h (1 Bft)
29.08.2015 16:00 29,0 C 34,0 C 49 % 1017,7 hPa 0,0 mm 3,4 km/h (1 Bft) NO 45 17,2 C 6,7 km/h (2 Bft)
29.08.2015 16:05 29,1 C 34,0 C 49 % 1017,7 hPa 0,0 mm 4,1 km/h (1 Bft) N-NO 22 17,3 C 14,0 km/h (3 Bft)
29.08.2015 16:10 29,0 C 33,6 C 48 % 1017,7 hPa 0,0 mm 7,0 km/h (2 Bft) O 90 16,9 C 8,0 km/h (2 Bft)
29.08.2015 16:15 28,9 C 33,6 C 49 % 1017,2 hPa 0,0 mm 6,7 km/h (2 Bft) NO 45 17,1 C 6,2 km/h (2 Bft)
29.08.2015 16:20 28,6 C 33,7 C 49 % 1017,2 hPa 0,0 mm 4,9 km/h (1 Bft) N-NO 22 16,8 C 5,4 km/h (1 Bft)
29.08.2015 16:25 28,5 C 33,6 C 49 % 1017,2 hPa 0,0 mm 5,2 km/h (1 Bft) NW 315 16,7 C 0,0 km/h (0 Bft)
29.08.2015 16:30 28,2 C 33,6 C 49 % 1017,2 hPa 0,0 mm 6,0 km/h (2 Bft) O-SO 112 16,5 C 6,7 km/h (2 Bft)
29.08.2015 16:35 28,0 C 33,4 C 48 % 1017,2 hPa 0,0 mm 5,7 km/h (1 Bft) N 360 15,9 C 10,4 km/h (2 Bft)
29.08.2015 16:40 27,9 C 32,4 C 49 % 1017,2 hPa 0,0 mm 5,7 km/h (1 Bft) N-NO 22 16,2 C 14,8 km/h (3 Bft)
29.08.2015 16:45 28,0 C 31,2 C 48 % 1017,2 hPa 0,0 mm 5,7 km/h (1 Bft) O 90 15,9 C 7,3 km/h (2 Bft)
29.08.2015 16:50 28,0 C 30,1 C 48 % 1017,2 hPa 0,0 mm 6,5 km/h (2 Bft) O 90 15,9 C 11,4 km/h (2 Bft)
29.08.2015 16:55 28,0 C 29,5 C 48 % 1016,8 hPa 0,0 mm 5,7 km/h (1 Bft) SO 135 15,9 C 2,6 km/h (1 Bft)
29.08.2015 17:00 27,9 C 29,1 C 49 % 1016,8 hPa 0,0 mm 5,2 km/h (1 Bft) O-NO 67 16,2 C 15,0 km/h (3 Bft)
29.08.2015 17:05 28,0 C 29,0 C 48 % 1016,8 hPa 0,0 mm 4,9 km/h (1 Bft) N-NO 22 15,9 C 8,8 km/h (2 Bft)
29.08.2015 17:10 27,9 C 28,9 C 49 % 1016,8 hPa 0,0 mm 4,7 km/h (1 Bft) N-NO 22 16,2 C 4,1 km/h (1 Bft)
29.08.2015 17:15 27,9 C 29,0 C 49 % 1017,0 hPa 0,0 mm 4,1 km/h (1 Bft) O-NO 67 16,2 C 3,1 km/h (1 Bft)
29.08.2015 17:20 27,7 C 28,7 C 49 % 1017,0 hPa 0,0 mm 4,7 km/h (1 Bft) O-NO 67 16,0 C 4,9 km/h (1 Bft)
29.08.2015 17:25 27,6 C 28,6 C 48 % 1017,0 hPa 0,0 mm 6,2 km/h (2 Bft) N-NO 22 15,6 C 2,8 km/h (1 Bft)
29.08.2015 17:30 27,4 C 28,4 C 48 % 1017,0 hPa 0,0 mm 4,7 km/h (1 Bft) N-NO 22 15,4 C 9,3 km/h (2 Bft)
29.08.2015 17:35 27,3 C 28,3 C 48 % 1016,7 hPa 0,0 mm 2,8 km/h (1 Bft) SO 135 15,3 C 5,7 km/h (1 Bft)
29.08.2015 17:40 27,2 C 28,2 C 48 % 1016,7 hPa 0,0 mm 3,4 km/h (1 Bft) NW 315 15,2 C 6,2 km/h (2 Bft)
29.08.2015 17:45 27,1 C 28,1 C 48 % 1016,7 hPa 0,0 mm 3,4 km/h (1 Bft) O-SO 112 15,1 C 2,6 km/h (1 Bft)
29.08.2015 17:50 26,9 C 27,9 C 48 % 1016,7 hPa 0,0 mm 2,8 km/h (1 Bft) S-SW 202 14,9 C 2,8 km/h (1 Bft)
29.08.2015 17:55 26,8 C 27,9 C 47 % 1016,6 hPa 0,0 mm 2,3 km/h (1 Bft) O-SO 112 14,5 C 8,8 km/h (2 Bft)
29.08.2015 18:00 26,8 C 27,7 C 46 % 1016,6 hPa 0,0 mm 3,1 km/h (1 Bft) NO 45 14,2 C 0,0 km/h (0 Bft)
29.08.2015 18:05 26,8 C 27,7 C 47 % 1016,6 hPa 0,0 mm 2,6 km/h (1 Bft) SO 135 14,5 C 0,0 km/h (0 Bft)
29.08.2015 18:10 26,5 C 27,5 C 47 % 1016,6 hPa 0,0 mm 2,1 km/h (1 Bft) SO 135 14,3 C 0,0 km/h (0 Bft)
29.08.2015 18:15 26,3 C 27,5 C 48 % 1016,3 hPa 0,0 mm 1,8 km/h (1 Bft) O 90 14,4 C 0,0 km/h (0 Bft)
29.08.2015 18:20 26,3 C 27,3 C 48 % 1016,3 hPa 0,0 mm 1,0 km/h (0 Bft) NO 45 14,4 C 0,0 km/h (0 Bft)
29.08.2015 18:25 26,3 C 27,3 C 48 % 1016,3 hPa 0,0 mm 2,1 km/h (1 Bft) N-NO 22 14,4 C 5,2 km/h (1 Bft)
29.08.2015 18:26 26,1 C 27,1 C 48 % 1016,3 hPa 0,0 mm 2,3 km/h (1 Bft) S-SO 157 14,2 C 2,8 km/h (1 Bft)
29.08.2015 18:28 26,1 C 27,1 C 48 % 1016,3 hPa 0,0 mm 2,3 km/h (1 Bft) S-SO 157 14,2 C 2,8 km/h (1 Bft)
29.08.2015 18:30 26,1 C 27,1 C 48 % 1016,3 hPa 0,0 mm 2,3 km/h (1 Bft) S-SO 157 14,2 C 2,8 km/h (1 Bft)
29.08.2015 18:35 25,8 C 27,0 C 49 % 1016,1 hPa 0,0 mm 1,6 km/h (1 Bft) O 90 14,3 C 4,4 km/h (1 Bft)
29.08.2015 18:40 25,9 C 26,9 C 49 % 1016,1 hPa 0,0 mm 1,6 km/h (1 Bft) W-NW 292 14,4 C 0,0 km/h (0 Bft)
29.08.2015 18:45 25,7 C 26,8 C 49 % 1016,1 hPa 0,0 mm 1,6 km/h (1 Bft) O 90 14,2 C 2,6 km/h (1 Bft)
29.08.2015 18:50 25,6 C 26,6 C 50 % 1016,1 hPa 0,0 mm 0,5 km/h (0 Bft) S-SO 157 14,4 C 0,0 km/h (0 Bft)
29.08.2015 18:55 25,6 C 26,5 C 51 % 1016,1 hPa 0,0 mm 1,0 km/h (0 Bft) SO 135 14,7 C 6,5 km/h (2 Bft)
29.08.2015 19:00 25,5 C 26,3 C 49 % 1016,1 hPa 0,0 mm 1,6 km/h (1 Bft) SO 135 14,0 C 0,0 km/h (0 Bft)
29.08.2015 19:05 25,4 C 26,1 C 50 % 1016,1 hPa 0,0 mm 1,3 km/h (1 Bft) SO 135 14,2 C 3,9 km/h (1 Bft)
29.08.2015 19:10 25,3 C 25,9 C 50 % 1016,1 hPa 0,0 mm 1,0 km/h (0 Bft) SO 135 14,1 C 3,6 km/h (1 Bft)
29.08.2015 19:15 25,2 C 25,8 C 51 % 1015,9 hPa 0,0 mm 1,6 km/h (1 Bft) O-SO 112 14,3 C 4,9 km/h (1 Bft)
29.08.2015 19:20 25,1 C 25,6 C 52 % 1015,9 hPa 0,0 mm 1,6 km/h (1 Bft) O-SO 112 14,5 C 4,7 km/h (1 Bft)
29.08.2015 19:25 24,9 C 25,5 C 52 % 1015,9 hPa 0,0 mm 2,1 km/h (1 Bft) S-SO 157 14,4 C 4,7 km/h (1 Bft)
29.08.2015 19:30 24,7 C 25,3 C 53 % 1015,9 hPa 0,0 mm 1,8 km/h (1 Bft) SO 135 14,5 C 0,0 km/h (0 Bft)
29.08.2015 19:35 24,3 C 25,1 C 54 % 1015,9 hPa 0,0 mm 1,6 km/h (1 Bft) O-SO 112 14,4 C 0,0 km/h (0 Bft)
29.08.2015 19:40 24,0 C 24,7 C 55 % 1015,9 hPa 0,0 mm 1,3 km/h (1 Bft) O-SO 112 14,4 C 4,1 km/h (1 Bft)
29.08.2015 19:45 24,1 C 24,6 C 54 % 1015,9 hPa 0,0 mm 1,6 km/h (1 Bft) O-NO 67 14,2 C 0,0 km/h (0 Bft)
29.08.2015 19:50 23,7 C 24,3 C 55 % 1015,9 hPa 0,0 mm 1,3 km/h (1 Bft) SO 135 14,1 C 3,9 km/h (1 Bft)
29.08.2015 19:55 23,4 C 24,0 C 56 % 1015,9 hPa 0,0 mm 0,8 km/h (0 Bft) O-SO 112 14,1 C 0,0 km/h (0 Bft)
29.08.2015 20:00 23,1 C 23,6 C 58 % 1015,9 hPa 0,0 mm 0,8 km/h (0 Bft) S 180 14,4 C 2,8 km/h (1 Bft)
29.08.2015 20:05 22,7 C 23,3 C 59 % 1015,9 hPa 0,0 mm 0,3 km/h (0 Bft) S 180 14,3 C 0,0 km/h (0 Bft)
29.08.2015 20:10 22,1 C 22,8 C 61 % 1015,9 hPa 0,0 mm 0,3 km/h (0 Bft) S 180 14,2 C 0,0 km/h (0 Bft)
29.08.2015 20:15 21,6 C 22,4 C 61 % 1015,9 hPa 0,0 mm 0,0 km/h (0 Bft) O-SO 112 13,7 C 0,0 km/h (0 Bft)
29.08.2015 20:20 21,4 C 21,7 C 63 % 1015,9 hPa 0,0 mm 0,0 km/h (0 Bft) SO 135 14,1 C 0,0 km/h (0 Bft)
29.08.2015 20:25 21,4 C 21,5 C 64 % 1015,9 hPa 0,0 mm 0,0 km/h (0 Bft) O-SO 112 14,3 C 0,0 km/h (0 Bft)
29.08.2015 20:30 21,2 C 21,5 C 65 % 1015,9 hPa 0,0 mm 0,0 km/h (0 Bft) O-SO 112 14,4 C 0,0 km/h (0 Bft)
29.08.2015 20:35 21,1 C 21,3 C 65 % 1016,1 hPa 0,0 mm 0,0 km/h (0 Bft) O-SO 112 14,3 C 0,0 km/h (0 Bft)
29.08.2015 20:40 20,5 C 20,6 C 66 % 1016,1 hPa 0,0 mm 0,0 km/h (0 Bft) O-NO 67 13,9 C 0,0 km/h (0 Bft)
29.08.2015 20:45 20,2 C 20,3 C 66 % 1016,1 hPa 0,0 mm 0,0 km/h (0 Bft) O-SO 112 13,6 C 0,0 km/h (0 Bft)
29.08.2015 20:50 20,0 C 20,1 C 67 % 1016,1 hPa 0,0 mm 0,0 km/h (0 Bft) SO 135 13,7 C 0,0 km/h (0 Bft)
29.08.2015 20:55 19,9 C 20,0 C 68 % 1016,0 hPa 0,0 mm 0,0 km/h (0 Bft) SO 135 13,8 C 0,0 km/h (0 Bft)
29.08.2015 21:00 19,7 C 20,1 C 69 % 1016,0 hPa 0,0 mm 0,0 km/h (0 Bft) O 90 13,8 C 0,0 km/h (0 Bft)
29.08.2015 21:05 19,7 C 19,9 C 69 % 1016,0 hPa 0,0 mm 0,0 km/h (0 Bft) SO 135 13,8 C 0,0 km/h (0 Bft)
29.08.2015 21:10 19,4 C 19,3 C 69 % 1016,0 hPa 0,0 mm 0,0 km/h (0 Bft) SW 225 13,6 C 0,0 km/h (0 Bft)
29.08.2015 21:15 19,1 C 19,0 C 69 % 1016,1 hPa 0,0 mm 0,0 km/h (0 Bft) SW 225 13,3 C 0,0 km/h (0 Bft)
29.08.2015 21:20 19,1 C 19,0 C 70 % 1016,1 hPa 0,0 mm 0,0 km/h (0 Bft) S-SO 157 13,5 C 0,0 km/h (0 Bft)
29.08.2015 21:25 19,0 C 18,9 C 70 % 1016,1 hPa 0,0 mm 0,0 km/h (0 Bft) W-SW 247 13,4 C 0,0 km/h (0 Bft)
29.08.2015 21:30 18,6 C 18,6 C 70 % 1016,1 hPa 0,0 mm 0,0 km/h (0 Bft) S-SO 157 13,0 C 0,0 km/h (0 Bft)
29.08.2015 21:35 18,5 C 18,4 C 71 % 1016,0 hPa 0,0 mm 0,0 km/h (0 Bft) SO 135 13,1 C 0,0 km/h (0 Bft)
29.08.2015 21:40 18,5 C 18,4 C 73 % 1016,0 hPa 0,0 mm 0,3 km/h (0 Bft) SO 135 13,6 C 3,9 km/h (1 Bft)
29.08.2015 21:45 18,6 C 18,7 C 74 % 1016,0 hPa 0,0 mm 0,8 km/h (0 Bft) S-SO 157 13,9 C 2,6 km/h (1 Bft)
29.08.2015 21:50 18,8 C 19,2 C 75 % 1016,0 hPa 0,0 mm 1,3 km/h (1 Bft) S 180 14,3 C 5,4 km/h (1 Bft)
29.08.2015 21:55 19,0 C 19,3 C 74 % 1015,9 hPa 0,0 mm 1,8 km/h (1 Bft) S-SW 202 14,3 C 4,7 km/h (1 Bft)
29.08.2015 22:00 18,7 C 19,2 C 74 % 1015,9 hPa 0,0 mm 3,6 km/h (1 Bft) S-SW 202 14,0 C 7,0 km/h (2 Bft)
29.08.2015 22:05 18,5 C 19,0 C 75 % 1015,9 hPa 0,0 mm 4,4 km/h (1 Bft) W-SW 247 14,0 C 7,8 km/h (2 Bft)
29.08.2015 22:10 18,6 C 18,9 C 75 % 1015,9 hPa 0,0 mm 3,6 km/h (1 Bft) S 180 14,1 C 0,0 km/h (0 Bft)
29.08.2015 22:15 18,5 C 18,7 C 74 % 1015,9 hPa 0,0 mm 1,6 km/h (1 Bft) S 180 13,8 C 0,0 km/h (0 Bft)
29.08.2015 22:20 18,5 C 18,6 C 74 % 1015,9 hPa 0,0 mm 0,0 km/h (0 Bft) S 180 13,8 C 0,0 km/h (0 Bft)
29.08.2015 22:25 18,4 C 18,5 C 74 % 1015,9 hPa 0,0 mm 0,0 km/h (0 Bft) S 180 13,7 C 0,0 km/h (0 Bft)
29.08.2015 22:30 18,4 C 18,4 C 74 % 1015,9 hPa 0,0 mm 0,0 km/h (0 Bft) S-SO 157 13,7 C 0,0 km/h (0 Bft)
29.08.2015 22:35 18,4 C 18,3 C 74 % 1015,9 hPa 0,0 mm 0,0 km/h (0 Bft) S 180 13,7 C 0,0 km/h (0 Bft)
29.08.2015 22:40 18,2 C 18,1 C 74 % 1015,9 hPa 0,0 mm 0,0 km/h (0 Bft) S-SO 157 13,5 C 0,0 km/h (0 Bft)
29.08.2015 22:45 18,2 C 18,1 C 74 % 1015,9 hPa 0,0 mm 0,0 km/h (0 Bft) S-SO 157 13,5 C 0,0 km/h (0 Bft)
29.08.2015 22:50 17,7 C 17,7 C 75 % 1015,9 hPa 0,0 mm 0,0 km/h (0 Bft) S-SO 157 13,2 C 0,0 km/h (0 Bft)
29.08.2015 22:55 17,6 C 17,6 C 75 % 1015,9 hPa 0,0 mm 0,0 km/h (0 Bft) S-SO 157 13,1 C 0,0 km/h (0 Bft)
29.08.2015 23:00 17,5 C 17,4 C 75 % 1015,9 hPa 0,0 mm 0,0 km/h (0 Bft) S-SO 157 13,0 C 0,0 km/h (0 Bft)
29.08.2015 23:05 17,4 C 17,3 C 76 % 1015,9 hPa 0,0 mm 0,0 km/h (0 Bft) O-NO 67 13,1 C 0,0 km/h (0 Bft)
29.08.2015 23:10 17,5 C 17,3 C 76 % 1015,9 hPa 0,0 mm 0,0 km/h (0 Bft) O-NO 67 13,2 C 0,0 km/h (0 Bft)
29.08.2015 23:15 17,7 C 17,4 C 77 % 1015,8 hPa 0,0 mm 0,0 km/h (0 Bft) O-SO 112 13,6 C 0,0 km/h (0 Bft)
29.08.2015 23:20 17,3 C 17,2 C 76 % 1015,8 hPa 0,0 mm 0,0 km/h (0 Bft) O-NO 67 13,0 C 0,0 km/h (0 Bft)
29.08.2015 23:25 17,0 C 16,9 C 76 % 1015,8 hPa 0,0 mm 0,0 km/h (0 Bft) O-NO 67 12,7 C 0,0 km/h (0 Bft)
29.08.2015 23:30 16,8 C 16,7 C 77 % 1015,8 hPa 0,0 mm 0,0 km/h (0 Bft) O-NO 67 12,7 C 0,0 km/h (0 Bft)
29.08.2015 23:35 16,6 C 16,5 C 77 % 1015,8 hPa 0,0 mm 0,0 km/h (0 Bft) O-NO 67 12,5 C 0,0 km/h (0 Bft)
29.08.2015 23:40 16,5 C 16,3 C 77 % 1015,8 hPa 0,0 mm 0,0 km/h (0 Bft) O 90 12,5 C 0,0 km/h (0 Bft)
29.08.2015 23:45 16,5 C 16,3 C 78 % 1015,8 hPa 0,0 mm 0,0 km/h (0 Bft) O-NO 67 12,6 C 0,0 km/h (0 Bft)
29.08.2015 23:50 16,2 C 16,1 C 78 % 1015,8 hPa 0,0 mm 0,0 km/h (0 Bft) O-NO 67 12,4 C 0,0 km/h (0 Bft)
29.08.2015 23:55 16,1 C 16,0 C 78 % 1015,6 hPa 0,0 mm 0,0 km/h (0 Bft) O 90 12,3 C 0,0 km/h (0 Bft)
_ Min-Zeit 06:00 06:00 18:00 23:55 - 23:55 - - 05:15 23:55
Minimum _ 11,7 C 11,7 C 46 % 1015,6 hPa - 0,0 km/h (0 Bft) - - 9,5 C 0,0 km/h (0 Bft)
_ Max-Zeit 15:45 15:45 06:40 12:10 23:55 15:30 - - 15:05 15:30
Maximum _ 29,4 C 34,1 C 89 % 1020,9 hPa 0,0 mm 8,5 km/h
O-NO (2 Bft)
- - 18,2 C 27,2 km/h
O-NO (4 Bft)
Durchschnitt _ 20,4 C 22,7 C 68 % 1017,7 hPa #0,0 mm 2,1 km/h (1 Bft) N-NO - 13,8 C 3,2 km/h (1 Bft)